CZ-6A DEB

Satellite information

Favourite Embed

Satellite Type and Status

DEBRISIN ORBIT

Key statistics

Satellite CZ-6A DEB at a glance.

Uptime

1029

Days in orbit

Revolutions

≈ 14.4

Per day

Orbit

SSO

Sun Synchronous Orbit

Inclination

98.6

Latest

Satellite identification and parameters

Extended collection of information and parameters for CZ-6A DEB.

Object identification

Identified? True

Debris? True

Object name: CZ-6A DEB

International designator: 2022-151MH

Object number (NORAD): 54581

Object ID (CCSDS): 54581

Country: PEOPLES REPUBLIC OF CHINA (PRC)

Current information (Y/N): Y

RCS size: LARGE

Orbital parameters

Period: 100.134 minutes

Inclination: 98.6446 deg

SMA: 7143.013 km

Apoapsis: 849.632 km

Periapsis: 680.125 km

RAAN: 275.5583 deg

Eccentricy: 0.01186522

Argument of periapsis: 139.9366 deg

Mean anomaly: 221.0647 deg

Mean motion: 14.38071789 rev/day

Mean motion (dot): 0.00001075 rev/day2

B* drag term: 0.00034153318 1/REarth

Two-line elements (TLE)

Creation date: Sept. 3, 2025, 10:15 a.m.

Reference frame: TEME

Reference center: EARTH

Epoch: Sept. 3, 2025, 12:10 a.m. UTC

TLE line 0: 0 CZ-6A DEB

TLE line 1: 1 54581U 22151MH 25246.00712641 .00001075 00000-0 34153-3 0 9996

TLE line 2: 2 54581 98.6446 275.5583 0118652 139.9366 221.0647 14.38071789146637

Live tracking on map

Real-time ground track for satellite CZ-6A DEB.

In-orbit conjunctions

A list of the most updated potential collisions computed for object CZ-6A DEB.

Target Orbit TCA Probability of collision Miss distance Type
SCOUT X-4 DEB LEO 2025-08-15 23:12:17 0.0001064606 125.0 (m) DEBRIS
METEOR 1-26 LEO 2024-07-29 03:32:56 0.00116258 822.0 (m) PAYLOAD

Associated space launch

Chinese satellite reported for atmospheric/ocean/environmental/spatial parameter research purposes, details TBD.

CZ-6A DEB was lifted into orbit during the mission ‘Long March 6A | Yunhai 3’, on board a Long March 6A space rocket.

The launch took place on Nov. 11, 2022, 10:52 p.m. from Launch Complex 9A.

For more information about the launch, click the button.

Launch to space Long March 6A | Yunhai 3
Long March 6A | Yunhai 3

Agency: N/A

Status: Launch Successful

Launch date: Nov. 11, 2022, 10:52 p.m. UTC

Rocket: Long March 6A

Launch pad: Launch Complex 9A

Location: Taiyuan Satellite Launch Center, People's Republic of China

...

Latest news about this satellite

There are no fresh news available about this satellite. Check back as we update our databases every day.


Newsletter sign-up

Weekly statistics, charts and insights to help you stay on top of the space industry.